Location: Hilton Head Island
(32.2163°N, 80.7526°W)
Time: 16:01:02
(UTC-05:00)

A-11 Canister half - Visible Passes

Search period start: 18 February 2026 00:00
Search period end: 28 February 2026 00:00
Orbit: 1512 x 1687 km, 47.2° (Epoch: 18 February)

Date Brightness Start Highest point End Pass type
(mag) Time Alt. Az. Time Alt. Az. Time Alt. Az.
18 Feb 11.1 02:16:11 13° E 02:16:11 13° E 02:17:00 10° E visible
18 Feb 8.9 04:14:26 74° S 04:14:26 74° S 04:23:00 10° SE visible
18 Feb 10.2 06:12:40 13° W 06:17:24 19° WSW 06:23:23 10° SSW visible
18 Feb 9.3 19:15:45 10° SSW 19:25:28 52° SE 19:32:26 21° ENE visible
18 Feb 9.4 21:20:32 10° WSW 21:30:33 58° NNW 21:30:41 58° NNW visible
18 Feb 11.3 23:28:34 10° WNW 23:28:55 11° WNW 23:28:55 11° WNW visible
19 Feb 9.3 03:53:21 53° SE 03:53:21 53° SE 04:00:01 10° SE visible
19 Feb 10.0 05:51:36 18° WSW 05:54:28 21° SW 06:00:53 10° S visible
19 Feb 9.4 18:52:50 10° SSW 19:02:26 49° SE 19:11:16 13° ENE visible
19 Feb 9.4 20:57:20 10° WSW 21:07:24 61° NNW 21:09:31 52° NNE visible
19 Feb 11.0 23:05:17 10° WNW 23:07:45 18° WNW 23:07:45 18° WNW visible
20 Feb 9.9 03:32:19 35° SE 03:32:19 35° SE 03:37:00 10° SE visible
20 Feb 9.9 05:30:34 23° WSW 05:31:30 23° SW 05:38:21 10° S visible
20 Feb 9.5 18:29:58 10° SSW 18:39:24 45° SE 18:48:50 10° ENE visible
20 Feb 9.3 20:34:10 10° WSW 20:44:16 64° NNW 20:48:16 40° NNE visible
20 Feb 10.6 22:42:00 10° WNW 22:46:30 25° NW 22:46:30 25° NW visible
21 Feb 10.5 03:11:20 22° SE 03:11:20 22° SE 03:13:59 10° SE visible
21 Feb 9.9 05:09:36 25° SW 05:09:36 25° SW 05:15:44 10° S visible
21 Feb 9.3 20:11:00 10° WSW 20:21:09 67° NNW 20:26:57 29° NE visible
21 Feb 10.3 22:18:44 10° WNW 22:25:10 31° NW 22:25:10 31° NW visible
22 Feb 11.0 02:50:22 12° SE 02:50:22 12° SE 02:50:58 10° SE visible
22 Feb 10.1 04:48:37 24° SSW 04:48:37 24° SSW 04:53:06 10° S visible
22 Feb 9.3 19:47:51 10° WSW 19:58:02 71° NW 20:05:33 21° NE visible
22 Feb 10.1 21:55:27 10° WNW 22:03:47 36° NNW 22:03:47 36° NNW visible
23 Feb 10.4 04:27:39 19° S 04:27:39 19° S 04:30:25 10° S visible
23 Feb 9.3 19:24:43 10° WSW 19:34:55 74° NW 19:44:05 14° NE visible
23 Feb 10.0 21:32:11 10° WNW 21:41:24 37° NNW 21:42:18 36° N visible
23 Feb 11.2 23:39:49 10° NW 23:40:31 12° NW 23:40:31 12° NW visible
24 Feb 10.7 04:06:40 14° S 04:06:40 14° S 04:07:42 10° S visible
24 Feb 9.3 19:01:36 10° WSW 19:11:48 78° NW 19:21:59 10° NE visible
24 Feb 10.0 21:08:54 10° W 21:18:11 38° NNW 21:20:46 33° NNE visible
24 Feb 11.0 23:16:39 10° NW 23:18:59 18° NW 23:18:59 18° NW visible
25 Feb 9.3 18:38:30 10° SW 18:48:41 82° NW 18:58:55 10° NE visible
25 Feb 10.0 20:45:38 10° W 20:54:59 39° NNW 20:59:11 28° NNE visible
25 Feb 10.7 22:53:27 10° NW 22:57:23 23° NW 22:57:23 23° NW visible
26 Feb 10.0 20:22:22 10° W 20:31:47 40° NNW 20:37:32 23° NE visible
26 Feb 10.5 22:30:16 10° NW 22:35:44 28° NNW 22:35:44 28° NNW visible
27 Feb 10.0 19:59:06 10° W 20:08:35 41° NNW 20:15:52 17° NE visible
27 Feb 10.2 22:07:04 10° NW 22:14:03 32° NNW 22:14:03 32° NNW visible
